QPF
0.00 0.00 0.01 0.01 0.01 0.04 0.11 0.09 0.04 0.04 0.04 0.03 0.03 0.02 0.01 0.00 0.01 0.01 0.02 0.04 0.04 0.07 0.12 0.20 0.23 0.19 0.18 0.20 0.17 0.14 0.12 0.10 0.07 0.05 0.04 0.06 0.06 0.07 0.08 0.08 0.07 0.07 0.06
0.00 0.00 0.01 0.01 0.01 0.06 0.16 0.13 0.07 0.06 0.05 0.05 0.04 0.03 0.01 0.01 0.02 0.02 0.02 0.03 0.04 0.06 0.08 0.12 0.19 0.27 0.31 0.27 0.18 0.14 0.12 0.08 0.05 0.04 0.04 0.05 0.06 0.06 0.06 0.06 0.07 0.08 0.07
0.01 0.01 0.00 0.01 0.02 0.05 0.17 0.18 0.13 0.09 0.08 0.07 0.05 0.03 0.03 0.04 0.04 0.02 0.02 0.02 0.05 0.08 0.07 0.06 0.09 0.17 0.25 0.24 0.16 0.13 0.11 0.07 0.05 0.05 0.06 0.05 0.05 0.06 0.06 0.06 0.06 0.06 0.05
0.01 0.01 0.01 0.01 0.02 0.04 0.13 0.18 0.17 0.13 0.11 0.08 0.05 0.03 0.03 0.04 0.05 0.02 0.01 0.02 0.05 0.07 0.06 0.04 0.06 0.11 0.14 0.16 0.16 0.13 0.09 0.05 0.04 0.05 0.06 0.04 0.05 0.06 0.06 0.06 0.05 0.04 0.04
0.00 0.00 0.00 0.01 0.02 0.03 0.08 0.13 0.13 0.14 0.13 0.10 0.06 0.04 0.03 0.03 0.05 0.04 0.02 0.02 0.04 0.05 0.05 0.04 0.05 0.06 0.09 0.11 0.13 0.10 0.07 0.05 0.05 0.05 0.05 0.06 0.07 0.07 0.07 0.06 0.04 0.05 0.05
0.00 0.00 0.00 0.00 0.01 0.02 0.04 0.08 0.11 0.11 0.12 0.12 0.08 0.06 0.04 0.05 0.06 0.04 0.02 0.02 0.04 0.04 0.03 0.03 0.03 0.04 0.06 0.09 0.11 0.09 0.06 0.05 0.06 0.06 0.07 0.07 0.07 0.07 0.06 0.05 0.05 0.06 0.06
0.00 0.00 0.00 0.00 0.00 0.01 0.01 0.03 0.07 0.09 0.11 0.10 0.08 0.07 0.06 0.05 0.05 0.05 0.03 0.02 0.02 0.04 0.04 0.04 0.03 0.02 0.04 0.06 0.07 0.05 0.05 0.05 0.07 0.08 0.08 0.08 0.07 0.07 0.06 0.06 0.05 0.05 0.05
0.00 0.00 0.00 0.00 0.00 0.01 0.01 0.01 0.03 0.05 0.07 0.07 0.06 0.05 0.05 0.05 0.04 0.04 0.03 0.02 0.02 0.02 0.04 0.04 0.02 0.01 0.01 0.01 0.01 0.02 0.03 0.05 0.07 0.07 0.06 0.07 0.05 0.05 0.06 0.07 0.05 0.04 0.04
0.00 0.00 0.00 0.00 0.00 0.00 0.01 0.01 0.01 0.02 0.04 0.04 0.04 0.03 0.04 0.04 0.04 0.04 0.03 0.02 0.01 0.01 0.01 0.01 0.01 0.01 0.00 0.00 0.00 0.01 0.02 0.02 0.03 0.03 0.04 0.04 0.03 0.05 0.05 0.05 0.05 0.05 0.04
0.01 0.00 0.00 0.00 0.00 0.00 0.00 0.01 0.01 0.01 0.01 0.02 0.02 0.02 0.02 0.02 0.02 0.03 0.02 0.02 0.02 0.01 0.00 0.00 0.00 0.00 0.00 0.00 0.00 0.00 0.00 0.00 0.01 0.02 0.02 0.02 0.03 0.06 0.07 0.06 0.04 0.04 0.04
0.01 0.00 0.00 0.00 0.00 0.00 0.00 0.00 0.00 0.00 0.00 0.00 0.01 0.02 0.02 0.01 0.01 0.01 0.01 0.01 0.01 0.01 0.01 0.00 0.00 0.00 0.00 0.00 0.00 0.00 0.00 0.00 0.00 0.01 0.01 0.02 0.03 0.04 0.06 0.05 0.04 0.04 0.05
0.00 0.00 0.00 0.00 0.00 0.00 0.00 0.00 0.00 0.00 0.00 0.00 0.00 0.01 0.01 0.01 0.00 0.00 0.00 0.00 0.00 0.00 0.01 0.00 0.00 0.00 0.00 0.00 0.00 0.00 0.00 0.00 0.00 0.00 0.01 0.02 0.04 0.05 0.05 0.04 0.04 0.04 0.04
0.00 0.00 0.01 0.00 0.00 0.00 0.00 0.00 0.00 0.00 0.00 0.00 0.00 0.00 0.01 0.00 0.00 0.00 0.00 0.00 0.00 0.00 0.00 0.00 0.00 0.00 0.00 0.00 0.00 0.00 0.01 0.01 0.00 0.00 0.01 0.02 0.02 0.03 0.04 0.05 0.05 0.04 0.04
0.01 0.01 0.01 0.01 0.00 0.00 0.00 0.00 0.00 0.00 0.00 0.00 0.00 0.00 0.01 0.01 0.01 0.01 0.00 0.00 0.00 0.00 0.00 0.00 0.00 0.00 0.00 0.00 0.00 0.00 0.01 0.01 0.01 0.01 0.02 0.03 0.04 0.04 0.04 0.05 0.05 0.04 0.04
0.03 0.01 0.01 0.01 0.01 0.00 0.00 0.00 0.00 0.00 0.00 0.00 0.00 0.00 0.01 0.01 0.01 0.01 0.01 0.00 0.00 0.00 0.00 0.00 0.00 0.00 0.00 0.00 0.01 0.01 0.01 0.02 0.02 0.02 0.01 0.02 0.02 0.03 0.03 0.03 0.02 0.02 0.02
0.05 0.02 0.01 0.01 0.01 0.00 0.00 0.00 0.00 0.00 0.00 0.01 0.01 0.01 0.01 0.00 0.00 0.01 0.01 0.00 0.00 0.00 0.00 0.00 0.00 0.00 0.00 0.00 0.01 0.02 0.02 0.02 0.04 0.03 0.02 0.01 0.01 0.01 0.01 0.01 0.02 0.02 0.03
0.09 0.06 0.02 0.00 0.01 0.01 0.00 0.00 0.00 0.00 0.01 0.01 0.01 0.01 0.01 0.00 0.00 0.01 0.01 0.00 0.00 0.00 0.00 0.00 0.00 0.00 0.01 0.01 0.01 0.02 0.02 0.02 0.03 0.05 0.03 0.02 0.02 0.02 0.01 0.01 0.01 0.02 0.02
0.12 0.13 0.09 0.03 0.02 0.01 0.01 0.01 0.00 0.00 0.01 0.01 0.00 0.01 0.01 0.01 0.01 0.01 0.01 0.00 0.00 0.00 0.00 0.00 0.00 0.00 0.01 0.02 0.02 0.03 0.02 0.02 0.03 0.05 0.05 0.03 0.03 0.02 0.01 0.01 0.01 0.01 0.02
0.09 0.12 0.14 0.11 0.05 0.02 0.01 0.01 0.01 0.01 0.01 0.01 0.01 0.01 0.00 0.01 0.01 0.01 0.01 0.00 0.00 0.00 0.01 0.01 0.00 0.00 0.01 0.03 0.02 0.03 0.04 0.02 0.02 0.03 0.04 0.04 0.04 0.03 0.02 0.02 0.02 0.02 0.01
0.09 0.10 0.09 0.11 0.10 0.07 0.03 0.01 0.01 0.01 0.01 0.01 0.01 0.01 0.01 0.01 0.01 0.01 0.01 0.01 0.01 0.01 0.01 0.01 0.01 0.00 0.01 0.02 0.02 0.02 0.03 0.02 0.02 0.02 0.03 0.03 0.03 0.03 0.02 0.02 0.02 0.02 0.01
0.07 0.09 0.10 0.09 0.08 0.08 0.06 0.04 0.02 0.01 0.01 0.01 0.01 0.02 0.02 0.02 0.02 0.02 0.02 0.02 0.02 0.01 0.01 0.01 0.01 0.01 0.01 0.02 0.02 0.01 0.01 0.02 0.02 0.02 0.02 0.01 0.01 0.01 0.01 0.02 0.03 0.03 0.02
0.04 0.05 0.06 0.08 0.08 0.07 0.06 0.05 0.04 0.03 0.02 0.01 0.01 0.01 0.01 0.02 0.02 0.02 0.02 0.02 0.02 0.02 0.02 0.01 0.01 0.01 0.01 0.01 0.01 0.01 0.02 0.02 0.02 0.01 0.03 0.03 0.03 0.03 0.02 0.02 0.03 0.03 0.03
0.04 0.04 0.04 0.04 0.04 0.04 0.05 0.05 0.04 0.04 0.03 0.02 0.01 0.01 0.00 0.01 0.01 0.02 0.01 0.01 0.01 0.02 0.02 0.01 0.02 0.02 0.01 0.01 0.01 0.01 0.02 0.02 0.02 0.01 0.02 0.04 0.04 0.05 0.03 0.02 0.03 0.02 0.03
0.05 0.05 0.05 0.05 0.04 0.03 0.04 0.05 0.04 0.03 0.03 0.03 0.01 0.01 0.01 0.01 0.02 0.02 0.01 0.01 0.01 0.01 0.01 0.01 0.02 0.02 0.02 0.01 0.01 0.01 0.02 0.02 0.02 0.02 0.01 0.02 0.02 0.02 0.02 0.02 0.02 0.03 0.03
0.03 0.03 0.05 0.05 0.05 0.05 0.05 0.05 0.05 0.04 0.04 0.03 0.02 0.01 0.01 0.01 0.02 0.03 0.02 0.01 0.01 0.01 0.00 0.00 0.01 0.01 0.01 0.01 0.01 0.02 0.03 0.03 0.03 0.03 0.03 0.02 0.02 0.02 0.02 0.02 0.02 0.01 0.02
0.04 0.03 0.02 0.02 0.03 0.03 0.03 0.03 0.04 0.04 0.03 0.03 0.03 0.02 0.01 0.01 0.01 0.03 0.04 0.02 0.01 0.01 0.00 0.00 0.00 0.00 0.00 0.01 0.01 0.01 0.02 0.03 0.03 0.04 0.04 0.03 0.03 0.02 0.02 0.02 0.01 0.01 0.02
MSLP
1014.92 1015.12 1015.26 1015.36 1015.45 1015.53 1015.64 1015.76 1015.91 1016.08 1016.23 1016.36 1016.47 1016.54 1016.59 1016.60 1016.61 1016.60 1016.58 1016.57 1016.56 1016.57 1016.59 1016.63 1016.71 1016.81 1016.93 1017.06 1017.17 1017.24 1017.26 1017.21 1017.11 1016.96 1016.80 1016.65 1016.54 1016.48 1016.48 1016.51 1016.56 1016.62 1016.67
1014.74 1014.95 1015.13 1015.29 1015.45 1015.61 1015.78 1015.96 1016.15 1016.32 1016.47 1016.60 1016.69 1016.76 1016.79 1016.81 1016.82 1016.81 1016.81 1016.80 1016.81 1016.82 1016.86 1016.93 1017.03 1017.16 1017.31 1017.46 1017.58 1017.66 1017.66 1017.59 1017.45 1017.27 1017.06 1016.87 1016.72 1016.63 1016.60 1016.63 1016.69 1016.78 1016.86
1014.54 1014.74 1014.95 1015.17 1015.40 1015.64 1015.89 1016.13 1016.36 1016.55 1016.71 1016.83 1016.92 1016.97 1017.01 1017.02 1017.03 1017.03 1017.03 1017.03 1017.03 1017.05 1017.09 1017.16 1017.27 1017.41 1017.58 1017.74 1017.87 1017.95 1017.96 1017.88 1017.73 1017.53 1017.30 1017.09 1016.91 1016.80 1016.76 1016.78 1016.85 1016.96 1017.08
1014.37 1014.55 1014.76 1015.02 1015.31 1015.62 1015.94 1016.24 1016.51 1016.74 1016.91 1017.04 1017.12 1017.17 1017.21 1017.23 1017.25 1017.25 1017.26 1017.25 1017.25 1017.26 1017.29 1017.35 1017.45 1017.59 1017.75 1017.91 1018.05 1018.14 1018.16 1018.10 1017.96 1017.76 1017.53 1017.32 1017.13 1017.01 1016.96 1016.99 1017.07 1017.19 1017.34
1014.27 1014.40 1014.60 1014.88 1015.21 1015.57 1015.94 1016.29 1016.60 1016.85 1017.04 1017.18 1017.27 1017.34 1017.39 1017.43 1017.46 1017.49 1017.51 1017.51 1017.50 1017.50 1017.51 1017.55 1017.62 1017.74 1017.88 1018.04 1018.18 1018.28 1018.31 1018.27 1018.16 1017.98 1017.78 1017.58 1017.41 1017.29 1017.24 1017.27 1017.36 1017.49 1017.65
1014.23 1014.32 1014.50 1014.77 1015.11 1015.51 1015.91 1016.29 1016.63 1016.90 1017.11 1017.26 1017.37 1017.46 1017.54 1017.62 1017.69 1017.75 1017.79 1017.81 1017.80 1017.79 1017.78 1017.79 1017.83 1017.91 1018.03 1018.16 1018.30 1018.40 1018.46 1018.45 1018.37 1018.24 1018.08 1017.90 1017.76 1017.65 1017.61 1017.63 1017.72 1017.85 1018.02
1014.25 1014.29 1014.44 1014.70 1015.04 1015.44 1015.85 1016.25 1016.59 1016.88 1017.10 1017.27 1017.41 1017.54 1017.66 1017.79 1017.91 1018.01 1018.09 1018.14 1018.15 1018.14 1018.11 1018.10 1018.11 1018.16 1018.24 1018.35 1018.47 1018.57 1018.65 1018.67 1018.63 1018.54 1018.42 1018.29 1018.17 1018.09 1018.05 1018.08 1018.16 1018.28 1018.45
1014.27 1014.29 1014.42 1014.66 1014.99 1015.38 1015.78 1016.17 1016.51 1016.80 1017.03 1017.23 1017.40 1017.56 1017.74 1017.91 1018.09 1018.25 1018.37 1018.46 1018.49 1018.49 1018.47 1018.44 1018.42 1018.44 1018.50 1018.59 1018.69 1018.80 1018.88 1018.93 1018.93 1018.89 1018.81 1018.72 1018.63 1018.57 1018.54 1018.57 1018.64 1018.76 1018.92
1014.24 1014.26 1014.39 1014.62 1014.93 1015.30 1015.68 1016.05 1016.38 1016.66 1016.90 1017.11 1017.31 1017.51 1017.73 1017.96 1018.18 1018.39 1018.56 1018.68 1018.75 1018.77 1018.76 1018.73 1018.71 1018.72 1018.76 1018.83 1018.93 1019.04 1019.13 1019.20 1019.24 1019.24 1019.21 1019.16 1019.10 1019.06 1019.05 1019.07 1019.14 1019.24 1019.39
1014.10 1014.15 1014.29 1014.52 1014.82 1015.17 1015.53 1015.87 1016.18 1016.45 1016.69 1016.91 1017.13 1017.36 1017.61 1017.87 1018.13 1018.38 1018.58 1018.74 1018.84 1018.88 1018.89 1018.88 1018.88 1018.89 1018.93 1019.01 1019.11 1019.23 1019.34 1019.44 1019.51 1019.54 1019.55 1019.54 1019.52 1019.51 1019.51 1019.54 1019.60 1019.70 1019.84
1013.83 1013.92 1014.08 1014.32 1014.61 1014.95 1015.28 1015.60 1015.89 1016.15 1016.39 1016.61 1016.84 1017.08 1017.35 1017.62 1017.90 1018.16 1018.39 1018.56 1018.69 1018.76 1018.80 1018.83 1018.85 1018.88 1018.95 1019.05 1019.17 1019.30 1019.44 1019.56 1019.67 1019.74 1019.79 1019.82 1019.84 1019.86 1019.88 1019.92 1020.00 1020.10 1020.24
1013.44 1013.57 1013.76 1014.00 1014.29 1014.61 1014.92 1015.22 1015.49 1015.74 1015.97 1016.20 1016.43 1016.68 1016.94 1017.22 1017.49 1017.75 1017.98 1018.16 1018.30 1018.40 1018.47 1018.53 1018.59 1018.67 1018.78 1018.91 1019.06 1019.22 1019.39 1019.55 1019.68 1019.80 1019.90 1019.97 1020.03 1020.08 1020.14 1020.20 1020.29 1020.41 1020.56
1012.98 1013.12 1013.32 1013.57 1013.85 1014.15 1014.44 1014.72 1014.98 1015.22 1015.45 1015.68 1015.92 1016.17 1016.43 1016.69 1016.95 1017.19 1017.40 1017.57 1017.72 1017.84 1017.94 1018.04 1018.15 1018.28 1018.43 1018.61 1018.80 1019.00 1019.20 1019.39 1019.56 1019.72 1019.86 1019.98 1020.08 1020.18 1020.27 1020.37 1020.48 1020.62 1020.78
1012.51 1012.64 1012.83 1013.05 1013.31 1013.58 1013.85 1014.12 1014.37 1014.61 1014.85 1015.09 1015.34 1015.59 1015.84 1016.09 1016.33 1016.55 1016.74 1016.91 1017.05 1017.19 1017.32 1017.46 1017.62 1017.79 1017.99 1018.21 1018.44 1018.67 1018.90 1019.12 1019.33 1019.53 1019.71 1019.87 1020.02 1020.16 1020.29 1020.43 1020.57 1020.73 1020.92
1012.10 1012.18 1012.33 1012.51 1012.72 1012.96 1013.20 1013.44 1013.69 1013.94 1014.20 1014.46 1014.72 1014.98 1015.24 1015.49 1015.72 1015.92 1016.10 1016.26 1016.41 1016.56 1016.72 1016.89 1017.09 1017.31 1017.55 1017.80 1018.05 1018.31 1018.57 1018.81 1019.05 1019.27 1019.48 1019.68 1019.87 1020.05 1020.22 1020.39 1020.57 1020.75 1020.95
1011.81 1011.82 1011.89 1012.00 1012.15 1012.33 1012.53 1012.76 1013.00 1013.25 1013.52 1013.81 1014.10 1014.39 1014.66 1014.92 1015.15 1015.36 1015.54 1015.71 1015.87 1016.04 1016.22 1016.43 1016.66 1016.91 1017.17 1017.45 1017.72 1017.99 1018.26 1018.51 1018.76 1019.00 1019.23 1019.45 1019.67 1019.88 1020.08 1020.28 1020.48 1020.68 1020.90
1011.69 1011.59 1011.56 1011.58 1011.65 1011.76 1011.91 1012.10 1012.32 1012.58 1012.86 1013.17 1013.48 1013.80 1014.10 1014.38 1014.64 1014.87 1015.07 1015.26 1015.45 1015.65 1015.87 1016.10 1016.36 1016.63 1016.91 1017.19 1017.47 1017.74 1018.00 1018.25 1018.49 1018.73 1018.97 1019.20 1019.44 1019.66 1019.88 1020.09 1020.30 1020.52 1020.74
1011.71 1011.51 1011.36 1011.28 1011.26 1011.28 1011.37 1011.50 1011.69 1011.93 1012.20 1012.52 1012.85 1013.19 1013.52 1013.83 1014.12 1014.38 1014.63 1014.86 1015.09 1015.34 1015.59 1015.86 1016.14 1016.43 1016.72 1017.00 1017.27 1017.53 1017.77 1018.01 1018.24 1018.47 1018.69 1018.92 1019.15 1019.38 1019.60 1019.81 1020.02 1020.24 1020.45
1011.86 1011.54 1011.29 1011.10 1010.98 1010.92 1010.92 1010.98 1011.11 1011.30 1011.55 1011.84 1012.16 1012.49 1012.84 1013.17 1013.50 1013.80 1014.10 1014.39 1014.68 1014.97 1015.28 1015.59 1015.90 1016.20 1016.50 1016.78 1017.04 1017.29 1017.51 1017.73 1017.94 1018.16 1018.37 1018.59 1018.80 1019.02 1019.22 1019.43 1019.62 1019.82 1020.03
1012.07 1011.66 1011.31 1011.03 1010.81 1010.65 1010.56 1010.53 1010.58 1010.69 1010.86 1011.09 1011.37 1011.68 1012.01 1012.35 1012.69 1013.04 1013.39 1013.73 1014.08 1014.44 1014.79 1015.15 1015.49 1015.83 1016.14 1016.42 1016.68 1016.92 1017.14 1017.35 1017.55 1017.76 1017.96 1018.16 1018.36 1018.55 1018.74 1018.92 1019.10 1019.28 1019.47
1012.29 1011.81 1011.39 1011.02 1010.71 1010.46 1010.27 1010.14 1010.07 1010.07 1010.14 1010.28 1010.47 1010.72 1011.00 1011.32 1011.67 1012.04 1012.42 1012.82 1013.22 1013.63 1014.04 1014.44 1014.83 1015.19 1015.52 1015.83 1016.10 1016.35 1016.58 1016.80 1017.00 1017.21 1017.41 1017.60 1017.79 1017.96 1018.13 1018.29 1018.44 1018.60 1018.77
1012.47 1011.95 1011.47 1011.04 1010.66 1010.32 1010.03 1009.78 1009.59 1009.47 1009.41 1009.42 1009.49 1009.64 1009.85 1010.12 1010.44 1010.81 1011.21 1011.63 1012.08 1012.53 1012.98 1013.43 1013.85 1014.25 1014.61 1014.95 1015.25 1015.53 1015.79 1016.03 1016.26 1016.49 1016.70 1016.90 1017.09 1017.26 1017.41 1017.55 1017.69 1017.83 1017.99
1012.59 1012.04 1011.53 1011.06 1010.62 1010.20 1009.82 1009.46 1009.15 1008.88 1008.68 1008.55 1008.50 1008.54 1008.65 1008.85 1009.12 1009.45 1009.84 1010.27 1010.73 1011.20 1011.68 1012.14 1012.60 1013.02 1013.42 1013.79 1014.13 1014.46 1014.76 1015.05 1015.33 1015.60 1015.84 1016.07 1016.27 1016.45 1016.60 1016.74 1016.87 1017.00 1017.15
1012.63 1012.07 1011.55 1011.05 1010.56 1010.09 1009.62 1009.16 1008.74 1008.36 1008.03 1007.77 1007.59 1007.51 1007.53 1007.64 1007.84 1008.12 1008.47 1008.87 1009.31 1009.77 1010.24 1010.71 1011.16 1011.60 1012.02 1012.42 1012.81 1013.18 1013.55 1013.90 1014.24 1014.56 1014.85 1015.12 1015.35 1015.55 1015.72 1015.87 1016.00 1016.14 1016.30
1012.60 1012.04 1011.50 1010.98 1010.46 1009.94 1009.42 1008.89 1008.38 1007.90 1007.48 1007.12 1006.85 1006.67 1006.60 1006.63 1006.75 1006.97 1007.25 1007.60 1007.98 1008.40 1008.83 1009.26 1009.69 1010.12 1010.54 1010.96 1011.38 1011.80 1012.22 1012.63 1013.03 1013.41 1013.77 1014.08 1014.36 1014.59 1014.79 1014.96 1015.11 1015.27 1015.45
1012.50 1011.93 1011.39 1010.85 1010.30 1009.75 1009.19 1008.62 1008.06 1007.53 1007.05 1006.64 1006.30 1006.07 1005.93 1005.89 1005.95 1006.09 1006.30 1006.56 1006.87 1007.20 1007.55 1007.92 1008.30 1008.69 1009.09 1009.51 1009.94 1010.39 1010.85 1011.31 1011.77 1012.21 1012.61 1012.98 1013.29 1013.57 1013.80 1014.00 1014.18 1014.37 1014.58
Thickness
5734 5734 5734 5734 5733 5733 5733 5732 5730 5729 5728 5727 5726 5725 5724 5724 5724 5724 5724 5725 5726 5726 5726 5725 5725 5725 5724 5723 5720 5719 5718 5717 5717 5718 5718 5718 5718 5718 5719 5718 5718 5718 5718
5732 5731 5731 5730 5729 5730 5729 5728 5726 5725 5724 5722 5721 5720 5719 5719 5718 5719 5719 5719 5719 5719 5720 5720 5719 5719 5719 5718 5716 5714 5712 5712 5712 5712 5713 5713 5713 5713 5713 5713 5713 5712 5712
5729 5728 5727 5726 5726 5726 5725 5724 5722 5721 5719 5718 5716 5715 5714 5713 5713 5713 5713 5713 5713 5713 5714 5714 5713 5714 5713 5712 5710 5708 5707 5706 5707 5707 5707 5707 5708 5708 5708 5707 5707 5707 5707
5727 5725 5724 5723 5722 5721 5721 5719 5717 5715 5713 5712 5710 5710 5709 5708 5707 5707 5706 5706 5706 5706 5707 5708 5707 5707 5707 5706 5704 5703 5702 5701 5701 5701 5701 5701 5702 5702 5702 5702 5702 5701 5701
5724 5723 5721 5719 5719 5718 5717 5715 5712 5710 5707 5706 5705 5704 5703 5702 5701 5701 5700 5699 5699 5699 5699 5699 5699 5699 5699 5698 5698 5697 5696 5695 5695 5695 5695 5695 5696 5696 5696 5696 5696 5695 5695
5722 5720 5718 5716 5716 5714 5711 5709 5707 5705 5703 5701 5701 5698 5696 5696 5695 5695 5694 5693 5693 5692 5692 5692 5691 5691 5691 5691 5690 5690 5690 5690 5689 5689 5688 5688 5689 5690 5690 5690 5690 5689 5689
5719 5717 5715 5713 5712 5709 5707 5705 5702 5699 5697 5696 5693 5689 5689 5689 5689 5688 5688 5687 5687 5686 5685 5685 5685 5684 5684 5683 5683 5684 5684 5683 5683 5683 5682 5682 5683 5683 5683 5684 5684 5683 5683
5716 5714 5712 5710 5708 5705 5703 5701 5698 5694 5692 5691 5687 5681 5677 5677 5680 5683 5681 5681 5680 5679 5679 5678 5678 5677 5677 5676 5676 5677 5677 5677 5677 5676 5676 5676 5676 5676 5677 5677 5677 5676 5676
5712 5711 5709 5707 5705 5702 5699 5697 5695 5692 5688 5686 5685 5680 5672 5667 5669 5672 5674 5674 5673 5672 5672 5672 5671 5671 5670 5669 5669 5670 5670 5670 5670 5670 5670 5670 5670 5670 5670 5670 5670 5670 5669
5708 5707 5706 5704 5701 5699 5696 5695 5693 5690 5687 5682 5681 5680 5677 5672 5666 5663 5665 5666 5667 5666 5665 5666 5665 5665 5664 5664 5663 5663 5663 5663 5663 5663 5664 5664 5664 5664 5664 5663 5663 5662 5662
5704 5704 5702 5700 5698 5696 5694 5692 5690 5687 5685 5681 5678 5675 5672 5669 5666 5661 5657 5658 5659 5659 5660 5660 5659 5659 5659 5658 5657 5657 5657 5657 5657 5657 5658 5658 5658 5658 5657 5657 5656 5656 5655
5700 5700 5698 5697 5695 5693 5691 5689 5687 5685 5682 5679 5676 5673 5670 5666 5662 5659 5654 5652 5651 5652 5654 5654 5654 5653 5653 5652 5651 5651 5651 5652 5652 5652 5651 5651 5651 5651 5650 5650 5649 5649 5649
5694 5694 5695 5693 5691 5690 5688 5686 5683 5681 5679 5676 5673 5671 5669 5666 5664 5659 5654 5649 5647 5646 5647 5647 5648 5648 5647 5646 5646 5646 5646 5646 5646 5646 5645 5645 5644 5644 5644 5643 5643 5643 5643
5691 5692 5691 5689 5688 5686 5684 5682 5679 5677 5675 5673 5671 5668 5666 5664 5662 5658 5653 5647 5642 5640 5641 5642 5643 5643 5642 5642 5641 5641 5640 5640 5640 5640 5640 5639 5638 5637 5637 5637 5637 5637 5637
5688 5688 5687 5685 5684 5682 5680 5678 5675 5672 5670 5668 5666 5664 5662 5660 5658 5656 5653 5649 5642 5635 5634 5637 5637 5639 5638 5637 5637 5636 5635 5635 5635 5635 5634 5634 5633 5632 5632 5631 5631 5631 5631
5684 5684 5682 5681 5679 5678 5676 5674 5671 5669 5666 5664 5662 5660 5658 5656 5654 5652 5649 5646 5643 5637 5632 5634 5633 5634 5633 5632 5631 5631 5630 5629 5629 5629 5629 5628 5628 5627 5627 5626 5626 5625 5625
5679 5679 5678 5676 5675 5674 5672 5669 5667 5664 5661 5659 5657 5656 5654 5652 5649 5647 5645 5642 5639 5636 5630 5630 5630 5629 5628 5626 5626 5625 5624 5623 5623 5623 5623 5623 5623 5622 5622 5621 5621 5620 5620
5673 5673 5672 5671 5670 5669 5667 5665 5662 5660 5657 5654 5653 5651 5649 5648 5645 5643 5641 5638 5636 5634 5629 5625 5624 5623 5622 5621 5620 5618 5618 5618 5617 5618 5618 5618 5618 5617 5617 5616 5615 5615 5615
5666 5666 5666 5665 5664 5663 5662 5660 5658 5656 5653 5651 5649 5647 5645 5643 5640 5638 5636 5633 5631 5630 5626 5622 5619 5617 5616 5615 5613 5612 5611 5611 5611 5612 5612 5612 5612 5611 5611 5610 5610 5609 5609
5660 5659 5659 5659 5658 5657 5656 5655 5653 5651 5649 5647 5645 5643 5641 5639 5637 5634 5632 5628 5626 5623 5620 5616 5613 5611 5609 5608 5606 5604 5603 5603 5604 5605 5606 5606 5605 5605 5604 5604 5604 5604 5604
5652 5652 5652 5652 5651 5651 5650 5648 5647 5646 5643 5641 5639 5638 5637 5636 5634 5631 5629 5624 5621 5617 5613 5610 5607 5604 5601 5600 5599 5598 5596 5596 5597 5598 5598 5599 5599 5599 5598 5598 5598 5598 5598
5643 5643 5643 5643 5643 5645 5645 5643 5641 5639 5637 5635 5633 5632 5631 5630 5629 5627 5625 5623 5619 5614 5609 5605 5601 5599 5597 5596 5594 5593 5590 5588 5588 5591 5590 5591 5592 5592 5593 5592 5592 5592 5592
5635 5635 5634 5635 5635 5636 5637 5637 5635 5633 5631 5629 5627 5626 5625 5625 5623 5621 5619 5617 5615 5613 5610 5605 5600 5597 5595 5593 5590 5587 5585 5584 5583 5585 5584 5584 5585 5585 5586 5586 5586 5586 5585
5627 5627 5627 5627 5628 5629 5629 5629 5628 5626 5624 5622 5621 5620 5618 5617 5617 5615 5612 5610 5608 5606 5604 5602 5599 5596 5594 5592 5589 5586 5583 5580 5579 5579 5579 5576 5577 5578 5580 5580 5580 5579 5579
5619 5619 5620 5620 5620 5621 5622 5622 5621 5618 5616 5615 5614 5613 5612 5611 5612 5610 5607 5604 5601 5600 5599 5597 5595 5593 5590 5587 5584 5580 5575 5573 5572 5572 5571 5570 5570 5570 5571 5572 5573 5572 5572
5612 5612 5612 5612 5613 5613 5614 5615 5614 5611 5608 5607 5606 5606 5606 5606 5606 5604 5600 5598 5595 5593 5592 5589 5587 5585 5583 5581 5579 5576 5572 5568 5565 5565 5565 5563 5562 5562 5562 5564 5565 5565 5564